SCO29JP EGCC-EGKK

Flight info

Callsign SCO29JP
Flight time 0h 40m
Altitude 19000
Route LISTO L612 HON N859 KIDLI
Aircraft A320/M-SDE3FGHIRWY/LB1

Departure

Time 2026-05-04 06:29
Airport Manchester Airport (EGCC)

Arrival

Time 2026-05-04 07:10
Airport London Gatwick Airport (EGKK)
Time Latitude Longitude Altitude Speed Heading
2026-05-04 06:20 53.35914 -2.27121 248 ft 0 kts 64°
2026-05-04 06:22 53.35911 -2.27130 248 ft 4 kts 65°
2026-05-04 06:25 53.35809 -2.27172 248 ft 13 kts 149°
2026-05-04 06:25 53.35754 -2.27183 252 ft 14 kts 217°
2026-05-04 06:26 53.35683 -2.27326 253 ft 17 kts 231°
2026-05-04 06:26 53.35609 -2.27478 253 ft 17 kts 231°
2026-05-04 06:26 53.35523 -2.27653 248 ft 22 kts 231°
2026-05-04 06:26 53.35457 -2.27877 247 ft 23 kts 262°
2026-05-04 06:27 53.34950 -2.28854 230 ft 30 kts 226°
2026-05-04 06:28 53.34805 -2.29069 223 ft 29 kts 195°
2026-05-04 06:28 53.34672 -2.28962 217 ft 5 kts 93°
2026-05-04 06:28 53.34676 -2.28955 222 ft 0 kts 60°
2026-05-04 06:28 53.34677 -2.28951 225 ft 3 kts 60°
2026-05-04 06:29 53.34846 -2.28588 234 ft 78 kts 51°
2026-05-04 06:29 53.35327 -2.27589 257 ft 139 kts 51°
2026-05-04 06:29 53.35992 -2.26187 673 ft 156 kts 52°
2026-05-04 06:29 53.36668 -2.24772 1466 ft 155 kts 51°
2026-05-04 06:30 53.37355 -2.23262 2006 ft 175 kts 62°
2026-05-04 06:30 53.37576 -2.21163 2431 ft 199 kts 98°
2026-05-04 06:30 53.36861 -2.19063 2869 ft 224 kts 138°
2026-05-04 06:30 53.35507 -2.17496 3364 ft 250 kts 149°
2026-05-04 06:31 53.33782 -2.16760 4041 ft 267 kts 182°
2026-05-04 06:31 53.31903 -2.17076 4743 ft 274 kts 186°
2026-05-04 06:31 53.30014 -2.17417 4952 ft 273 kts 186°
2026-05-04 06:31 53.28116 -2.17739 5001 ft 273 kts 186°
2026-05-04 06:32 53.26232 -2.18040 5055 ft 271 kts 185°
2026-05-04 06:33 53.12940 -2.18950 6822 ft 280 kts 158°
2026-05-04 06:34 53.11119 -2.17652 7670 ft 284 kts 157°
2026-05-04 06:34 53.09319 -2.16393 8668 ft 286 kts 157°
2026-05-04 06:34 53.07449 -2.15106 9592 ft 290 kts 158°
2026-05-04 06:34 53.05583 -2.13821 10388 ft 301 kts 158°
2026-05-04 06:35 53.03545 -2.12422 10823 ft 322 kts 158°
2026-05-04 06:36 52.88328 -2.01999 16267 ft 351 kts 159°
2026-05-04 06:37 52.86026 -2.00419 16988 ft 355 kts 159°
2026-05-04 06:37 52.83772 -1.98873 17680 ft 358 kts 159°
2026-05-04 06:37 52.81455 -1.97285 18367 ft 361 kts 159°
2026-05-04 06:37 52.79129 -1.95694 18860 ft 364 kts 159°
2026-05-04 06:38 52.76791 -1.94101 18998 ft 363 kts 159°
2026-05-04 06:38 52.74502 -1.92540 19023 ft 348 kts 160°
2026-05-04 06:40 52.56842 -1.80588 19022 ft 434 kts 160°
2026-05-04 06:40 52.54026 -1.78697 19027 ft 437 kts 159°
2026-05-04 06:40 52.51216 -1.76808 19021 ft 438 kts 159°
2026-05-04 06:40 52.48396 -1.74911 19027 ft 438 kts 160°
2026-05-04 06:41 52.45570 -1.73007 19028 ft 437 kts 159°
2026-05-04 06:41 52.42794 -1.71139 19027 ft 437 kts 160°
2026-05-04 06:41 52.39948 -1.69231 19027 ft 437 kts 160°
2026-05-04 06:41 52.37121 -1.67340 19026 ft 437 kts 160°
2026-05-04 06:42 52.34299 -1.65518 19027 ft 437 kts 161°
2026-05-04 06:42 52.31439 -1.63878 19028 ft 436 kts 163°
2026-05-04 06:42 52.28539 -1.62375 19033 ft 436 kts 165°
2026-05-04 06:44 52.08296 -1.52162 19020 ft 436 kts 164°
2026-05-04 06:44 52.05398 -1.50648 19019 ft 436 kts 164°
2026-05-04 06:44 52.02512 -1.49149 18894 ft 437 kts 164°
2026-05-04 06:45 51.99634 -1.47659 18570 ft 434 kts 164°
2026-05-04 06:45 51.96757 -1.46175 18316 ft 431 kts 164°
2026-05-04 06:45 51.93908 -1.44712 18053 ft 430 kts 164°
2026-05-04 06:45 51.91074 -1.43256 17547 ft 426 kts 164°
2026-05-04 06:46 51.88296 -1.41831 17332 ft 408 kts 164°
2026-05-04 06:46 51.85659 -1.40480 17202 ft 388 kts 164°
2026-05-04 06:46 51.83182 -1.39207 17059 ft 357 kts 165°
2026-05-04 06:46 51.80889 -1.38030 16667 ft 338 kts 165°
2026-05-04 06:48 51.67498 -1.26078 14012 ft 304 kts 149°
2026-05-04 06:48 51.65732 -1.24245 13799 ft 302 kts 149°
2026-05-04 06:49 51.63968 -1.22416 13636 ft 301 kts 149°
2026-05-04 06:50 51.51770 -1.09790 12374 ft 295 kts 149°
2026-05-04 06:51 51.50049 -1.08008 12201 ft 294 kts 149°
2026-05-04 06:51 51.48329 -1.06235 12020 ft 293 kts 149°
2026-05-04 06:51 51.46619 -1.04477 11851 ft 292 kts 149°
2026-05-04 06:51 51.44902 -1.02712 11666 ft 292 kts 149°
2026-05-04 06:52 51.43196 -1.00960 11494 ft 291 kts 149°
2026-05-04 06:52 51.41492 -0.99211 11314 ft 291 kts 149°
2026-05-04 06:52 51.39783 -0.97455 11141 ft 291 kts 149°
2026-05-04 06:52 51.38086 -0.95712 10960 ft 290 kts 149°
2026-05-04 06:53 51.36397 -0.93980 10794 ft 290 kts 149°
2026-05-04 06:53 51.34703 -0.92243 10612 ft 289 kts 149°
2026-05-04 06:53 51.33007 -0.90510 10442 ft 289 kts 148°
2026-05-04 06:53 51.31311 -0.88781 10266 ft 288 kts 149°
2026-05-04 06:54 51.29623 -0.87062 10095 ft 288 kts 148°
2026-05-04 06:54 51.27937 -0.85346 9915 ft 288 kts 148°
2026-05-04 06:54 51.26243 -0.83622 9750 ft 288 kts 148°
2026-05-04 06:54 51.24562 -0.81909 9569 ft 287 kts 148°
2026-05-04 06:55 51.22876 -0.80194 9401 ft 287 kts 148°
2026-05-04 06:55 51.21198 -0.78491 9222 ft 286 kts 148°
2026-05-04 06:55 51.19512 -0.76783 9057 ft 286 kts 148°
2026-05-04 06:55 51.17837 -0.75088 8874 ft 286 kts 148°
2026-05-04 06:56 51.16160 -0.73390 8708 ft 285 kts 148°
2026-05-04 06:57 51.04989 -0.60929 7512 ft 280 kts 124°
2026-05-04 06:58 51.04054 -0.58212 7347 ft 279 kts 116°
2026-05-04 06:58 51.03195 -0.55454 7175 ft 279 kts 117°
2026-05-04 06:58 51.02328 -0.52692 6997 ft 278 kts 117°
2026-05-04 06:58 51.01468 -0.49956 6836 ft 277 kts 117°
2026-05-04 06:59 51.00607 -0.47211 6673 ft 277 kts 116°
2026-05-04 06:59 50.99749 -0.44477 6505 ft 275 kts 116°
2026-05-04 06:59 50.98896 -0.41766 6341 ft 275 kts 117°
2026-05-04 06:59 50.98043 -0.39065 6175 ft 274 kts 117°
2026-05-04 07:01 50.92106 -0.20296 5026 ft 270 kts 116°
2026-05-04 07:01 50.91262 -0.17652 4873 ft 269 kts 116°
2026-05-04 07:02 50.90431 -0.15048 4728 ft 257 kts 116°
2026-05-04 07:02 50.89645 -0.12588 4594 ft 245 kts 116°
2026-05-04 07:02 50.88889 -0.10225 4353 ft 239 kts 116°
2026-05-04 07:02 50.88466 -0.07756 4228 ft 233 kts 84°
2026-05-04 07:03 50.89086 -0.05455 4098 ft 229 kts 44°
2026-05-04 07:03 50.90477 -0.04324 3973 ft 229 kts 12°
2026-05-04 07:03 50.92045 -0.03966 3887 ft 229 kts
2026-05-04 07:03 50.93638 -0.03808 3815 ft 229 kts
2026-05-04 07:04 50.95210 -0.03682 3692 ft 228 kts
2026-05-04 07:04 50.96808 -0.03529 3558 ft 228 kts
2026-05-04 07:04 50.98388 -0.03346 3418 ft 226 kts
2026-05-04 07:04 50.99956 -0.03139 3270 ft 226 kts
2026-05-04 07:05 51.01494 -0.02915 3142 ft 225 kts
2026-05-04 07:05 51.03071 -0.02676 3040 ft 224 kts
2026-05-04 07:05 51.04598 -0.02440 3001 ft 223 kts
2026-05-04 07:05 51.06143 -0.02197 3004 ft 224 kts
2026-05-04 07:06 51.09232 -0.01704 2983 ft 223 kts
2026-05-04 07:06 51.10807 -0.01452 2508 ft 229 kts
2026-05-04 07:06 51.12381 -0.01199 2308 ft 225 kts
2026-05-04 07:07 51.13911 -0.01120 2173 ft 215 kts 350°
2026-05-04 07:08 51.15748 -0.12201 867 ft 132 kts 259°
2026-05-04 07:09 51.15555 -0.13616 681 ft 130 kts 259°
2026-05-04 07:09 51.15362 -0.15022 515 ft 131 kts 259°
2026-05-04 07:09 51.15168 -0.16440 352 ft 131 kts 258°
2026-05-04 07:09 51.14976 -0.17842 216 ft 125 kts 258°
2026-05-04 07:10 51.14848 -0.18774 208 ft 55 kts 258°
2026-05-04 07:10 51.14773 -0.19345 210 ft 45 kts 260°
2026-05-04 07:12 51.14951 -0.19371 207 ft 0 kts 77°
2026-05-04 07:14 51.15044 -0.19364 215 ft 7 kts 256°
2026-05-04 07:14 51.15032 -0.19437 209 ft 6 kts 256°
2026-05-04 07:15 51.15027 -0.19504 204 ft 8 kts 276°
2026-05-04 07:15 51.15110 -0.19584 212 ft 18 kts 348°
2026-05-04 07:15 51.15237 -0.19619 211 ft 14 kts 16°
2026-05-04 07:15 51.15266 -0.19497 206 ft 7 kts 78°
2026-05-04 07:16 51.15267 -0.19489 210 ft 0 kts 78°